Location: Leverkusen
(51.0459°N, 7.0192°E)
Time: 12:46:00
(UTC+02:00)

ISS - Pass Details

Date: 25 January 2019
Orbit: 411 x 421 km, 51.6° (Epoch: 18 October)

Event Time Altitude Azimuth Distance (km) Brightness Sun altitude
Rises 20:01:06 0° 255° (WSW) 2,416 1.3 -26.6°
Reaches altitude 10° 20:03:13 10° 255° (WSW) 1,550 0.0 -26.9°
Enters shadow 20:04:50 25° 255° (WSW) 918 -1.5 -27.2°
